TOURFACTS.DK  
Stats and Facts from Tour de France.

Tour de France 2019 starts in 320 days
  Riders   Stages   Teams   Summits   Yearly  


 
Search by year

After 2018 - Stage 21:
 15000 starters.
  5165 different riders.
  638 teams.
  2253 stages.
  456 restdays.
  442940.60 km.
  5684 abandonnees.


Top 3
GC
Geraint Thomas83:17:13
Tom Dumoulin83:19:04
Christopher Froome83:19:37
Climb
Julian Alaphilippe170 pt.
Warren Barguil91 pt.
Rafal Majka76 pt.
Sprint
Peter Sagan477 pt.
Alexander Kristoff246 pt.
Arnaud Démare203 pt.
Youth
Pierre-Roger Latou..83:39:26
Egan Bernal83:45:05
Guillaume Martin84:01:31
Facts from Tour de France 2017
  |   Stages.  |   Stage winners.  |   Days in yellow  |   Average speed.  |   Route.  |   Teams.  |   All riders.  |   Rookies.  |  

  |   Withdrawls.  |   GC.  |   Polka  |   Green  |   White  |   Summits. (In tour)  |   Miscellaneous.  |  

Stage 17 on 19 - 07 - 2017
         Owning:    Christopher Froome      Warren Barguil      Michael Matthews      Simon Yates  

Pick a stage:  1 2 3 4 5 6 7 8 9 10 11 12 13 14 15 16 17 18 19 20 21
  La MureSerre-Chevalier | Dist: 183.00 km.
Cat: 2Col d'OrnonAUSMichael Matthews5 points 
Cat: HCol de la Croix de FerBELThomas De Gendt20 points 
Cat: 1Col du TélégrapheSLOPrimoz Roglic10 points 
Cat: HCol du GalibierSLOPrimoz Roglic20 points 

Average speed for all riders in stage:  32,885 km./hr.
    Place:Name:Team:Time:Km/h:
1
SLOPrimoz RoglicNLDTeam Lotto NL - Jumbo05:07:41  +  00:00:00=35,686 
2
COLRigoberto UránUSACannondale-Drapac Pro Cycling ..05:08:54  +  00:01:13=35,545 
3
KENChristopher FroomeGBRSky Procycling05:08:54  +  00:01:13=35,545 
44 FRARomain BardetFRAAg2r La Mondiale05:08:54  +  00:01:13=35,545 
55 FRAWarren BarguilDEUTeam Sunweb05:08:54  +  00:01:13=35,545 
66 ESPMikel Landa MeanaGBRSky Procycling05:08:57  +  00:01:16=35,540 
77 ENGDaniel MartinBELQuick-Step Floors05:09:24  +  00:01:43=35,488 
88 ESPAlberto ContadorUSATrek - Segafredo05:09:25  +  00:01:44=35,486 
99 RSALouis MeintjesUAEUAE Team Emirates05:09:25  +  00:01:44=35,486 
1010 ITAFabio AruKAZAstana Pro Team05:09:25  +  00:01:44=35,486 
1111 SUIMathias FrankFRAAg2r La Mondiale05:09:25  +  00:01:44=35,486 
1212 COLDarwin AtapumaUAEUAE Team Emirates05:09:40  +  00:01:59=35,457 
1313 BELSerge PauwelsZAFDimension Data05:10:51  +  00:03:10=35,323 
1414 ENGSimon YatesAUSOrica - Scott05:10:55  +  00:03:14=35,315 
1515 ESPDaniel NavarroFRACofidis – Solutions Crédits05:12:48  +  00:05:07=35,102 
1616 ITADamiano CarusoUSABMC Racing Team05:12:48  +  00:05:07=35,102 
1717 CZEOndrej CinkBHRBahrain-Merida05:12:48  +  00:05:07=35,102 
1818 FRAAmaël MoinardUSABMC Racing Team05:13:41  +  00:06:00=35,003 
1919 FRAAlexis VuillermozFRAAg2r La Mondiale05:13:41  +  00:06:00=35,003 
2020 FRABrice FeilluFRAFortuneo - Vital Concept05:13:41  +  00:06:00=35,003 
2121 ESPMikel NieveGBRSky Procycling05:13:41  +  00:06:00=35,003 
2222 GEREmanuel BuchmannDEUBora–Hansgrohe05:15:28  +  00:07:47=34,806 
2323 COLNairo QuintanaESPMovistar Team05:15:28  +  00:07:47=34,806 
2424 BELTiesj BenootBELLotto Soudal05:16:26  +  00:08:45=34,699 
2525 FRATony GallopinBELLotto Soudal05:16:26  +  00:08:45=34,699 
2626 NEDBauke MollemaUSATrek - Segafredo05:16:39  +  00:08:58=34,676 
2727 KAZAndrey ZeitsKAZAstana Pro Team05:20:23  +  00:12:42=34,271 
2828 COLCarlos Alberto BetancurESPMovistar Team05:20:23  +  00:12:42=34,271 
2929 CZERoman KreuzigerAUSOrica - Scott05:20:29  +  00:12:48=34,261 
3030 BELPieter VanspeybrouckBELWanty – Groupe Gobert05:24:22  +  00:16:41=33,851 
3131 NEDMarco MinnaardBELWanty – Groupe Gobert05:24:22  +  00:16:41=33,851 
3232 BELThomas DegandBELWanty – Groupe Gobert05:24:22  +  00:16:41=33,851 
3333 RSADaryl ImpeyAUSOrica - Scott05:24:24  +  00:16:43=33,847 
3434 ITADiego UlissiUAEUAE Team Emirates05:24:24  +  00:16:43=33,847 
3535 HRVKristijan DurasekUAEUAE Team Emirates05:24:24  +  00:16:43=33,847 
3636 FRARudy MolardFRAFDJ05:24:24  +  00:16:43=33,847 
3737 ESPLuis Angel MateFRACofidis – Solutions Crédits05:24:24  +  00:16:43=33,847 
3838 FRAGuillaume MartinBELWanty – Groupe Gobert05:24:24  +  00:16:43=33,847 
3939 LUXBen GastauerFRAAg2r La Mondiale05:24:24  +  00:16:43=33,847 
4040 FRACyril GautierFRAAg2r La Mondiale05:24:24  +  00:16:43=33,847 
4141 BELJan BakelantsFRAAg2r La Mondiale05:24:24  +  00:16:43=33,847 
4242 USANathan BrownUSACannondale-Drapac Pro Cycling ..05:24:24  +  00:16:43=33,847 
4343 FRASylvain ChavanelFRADirect Energie05:24:24  +  00:16:43=33,847 
4444 FRAThomas VoecklerFRADirect Energie05:24:24  +  00:16:43=33,847 
4545 HRVRobert KiserlovskiCHETeam Katusha - Alpecin05:24:24  +  00:16:43=33,847 
4646 BELThomas De GendtBELLotto Soudal05:30:40  +  00:22:59=33,206 
4747 POLMichal KwiatkowskiGBRSky Procycling05:30:45  +  00:23:04=33,197 
4848 NEDLaurens ten DamDEUTeam Sunweb05:31:29  +  00:23:48=33,124 
4949 USAAndrew TalanskyUSACannondale-Drapac Pro Cycling ..05:31:29  +  00:23:48=33,124 
5050 FRALilian CalmejaneFRADirect Energie05:32:32  +  00:24:51=33,019 
5151 FRARomain HardyFRAFortuneo - Vital Concept05:32:32  +  00:24:51=33,019 
5252 ESPJesus HerradaESPMovistar Team05:32:34  +  00:24:53=33,016 
5353 FRANicolas RocheUSABMC Racing Team05:32:34  +  00:24:53=33,016 
5454 FRARomain SicardFRADirect Energie05:34:28  +  00:26:47=32,828 
5555 FRAPierre-Luc PérichonFRAFortuneo - Vital Concept05:34:56  +  00:27:15=32,783 
5656 KAZBakhtiyar KozhatayevKAZAstana Pro Team05:36:27  +  00:28:46=32,635 
5757 SUIDanilo WyssUSABMC Racing Team05:36:27  +  00:28:46=32,635 
5858 FRANicolas EdetFRACofidis – Solutions Crédits05:36:27  +  00:28:46=32,635 
5959 FRAMaxime BouetFRAFortuneo - Vital Concept05:36:27  +  00:28:46=32,635 
6060 POLPawel PoljanskiDEUBora–Hansgrohe05:36:27  +  00:28:46=32,635 
6161 NZLJack BauerBELQuick-Step Floors05:36:27  +  00:28:46=32,635 
6262 GERSimon GeschkeDEUTeam Sunweb05:36:27  +  00:28:46=32,635 
6363 ITAAlberto BettiolUSACannondale-Drapac Pro Cycling ..05:36:27  +  00:28:46=32,635 
6464 AUSMichael MatthewsDEUTeam Sunweb05:36:27  +  00:28:46=32,635 
6565 DENMichael ValgrenKAZAstana Pro Team05:36:27  +  00:28:46=32,635 
6666 ENGBen SwiftUAEUAE Team Emirates05:36:27  +  00:28:46=32,635 
6767 NEDDylan Van BaarleUSACannondale-Drapac Pro Cycling ..05:36:27  +  00:28:46=32,635 
6868 GERJasha SütterlinESPMovistar Team05:36:27  +  00:28:46=32,635 
6969 ESPJonathan CastroviejoESPMovistar Team05:39:35  +  00:31:54=32,334 
7070 CRCAndrey AmadorESPMovistar Team05:39:35  +  00:31:54=32,334 
7171 BELGuillaume Van KeirsbulckBELWanty – Groupe Gobert05:41:22  +  00:33:41=32,165 
7272 FRAPerrig QuemeneurFRADirect Energie05:41:22  +  00:33:41=32,165 
7373 GERMarcus BurghardtDEUBora–Hansgrohe05:41:22  +  00:33:41=32,165 
7474 AUSAdam HansenBELLotto Soudal05:41:22  +  00:33:41=32,165 
7575 NEDMike TeunissenDEUTeam Sunweb05:41:22  +  00:33:41=32,165 
7676 FRAYoann OffredoBELWanty – Groupe Gobert05:41:22  +  00:33:41=32,165 
7777 GERNils PolittCHETeam Katusha - Alpecin05:41:22  +  00:33:41=32,165 
7878 BELFrederik BackaertBELWanty – Groupe Gobert05:41:22  +  00:33:41=32,165 
7979 NZLPaddy BevinUSACannondale-Drapac Pro Cycling ..05:41:22  +  00:33:41=32,165 
8080 BELOliver NaesenFRAAg2r La Mondiale05:41:22  +  00:33:41=32,165 
8181 SUIMichael SchärUSABMC Racing Team05:41:22  +  00:33:41=32,165 
8282 GERNikias ArndtDEUTeam Sunweb05:41:22  +  00:33:41=32,165 
8383 FRAPierre-Roger LatourFRAAg2r La Mondiale05:41:22  +  00:33:41=32,165 
8484 FRAAxel DomontFRAAg2r La Mondiale05:41:22  +  00:33:41=32,165 
8585 NEDRoy CurversDEUTeam Sunweb05:41:22  +  00:33:41=32,165 
8686 FRAAngelo TulikFRADirect Energie05:41:22  +  00:33:41=32,165 
8787 GERJohn DegenkolbUSATrek - Segafredo05:41:22  +  00:33:41=32,165 
8888 AUSJay McCarthyDEUBora–Hansgrohe05:41:22  +  00:33:41=32,165 
8989 NEDKoen De KortUSATrek - Segafredo05:41:22  +  00:33:41=32,165 
9090 ENGScott ThwaitesZAFDimension Data05:41:22  +  00:33:41=32,165 
9191 ETHTsgabu Gebremaryan GrmayBHRBahrain-Merida05:41:22  +  00:33:41=32,165 
9292 ENGStephen CummingsZAFDimension Data05:41:22  +  00:33:41=32,165 
9393 BELJürgen RoelandtsBELLotto Soudal05:41:22  +  00:33:41=32,165 
9494 GERAndré GreipelBELLotto Soudal05:41:22  +  00:33:41=32,165 
9595 DDRRüdiger SeligDEUBora–Hansgrohe05:41:22  +  00:33:41=32,165 
9696 BELGreg Van AvermaetUSABMC Racing Team05:41:22  +  00:33:41=32,165 
9797 AUTBernhard EiselZAFDimension Data05:41:22  +  00:33:41=32,165 
9898 ESPHaimar ZubeldiaUSATrek - Segafredo05:41:22  +  00:33:41=32,165 
9999 NOREdvald Boasson HagenZAFDimension Data05:41:22  +  00:33:41=32,165 
100100 ITAFabio SabatiniBELQuick-Step Floors05:41:22  +  00:33:41=32,165 
101101 WALLuke RoweGBRSky Procycling05:41:22  +  00:33:41=32,165 
102102 ESPImanol ErvitiESPMovistar Team05:41:22  +  00:33:41=32,165 
103103 DENLars BakBELLotto Soudal05:41:22  +  00:33:41=32,165 
104104 RSAReinardt Janse Van RensburgZAFDimension Data05:41:22  +  00:33:41=32,165 
105105 FRAElie GesbertFRAFortuneo - Vital Concept05:41:22  +  00:33:41=32,165 
106106 ARGEduardo SepulvedaFRAFortuneo - Vital Concept05:41:22  +  00:33:41=32,165 
107107 BLRVasil KiryienkaGBRSky Procycling05:41:22  +  00:33:41=32,165 
108108 SUIStefan KüngUSABMC Racing Team05:41:22  +  00:33:41=32,165 
109109 ITAAndrea PasqualonBELWanty – Groupe Gobert05:41:22  +  00:33:41=32,165 
110110 SUIReto HollensteinCHETeam Katusha - Alpecin05:41:22  +  00:33:41=32,165 
111111 AUSDamien HowsonAUSOrica - Scott05:41:22  +  00:33:41=32,165 
112112 UKRAndriy GrivkoKAZAstana Pro Team05:41:22  +  00:33:41=32,165 
113113 NORAlexander KristoffCHETeam Katusha - Alpecin05:41:22  +  00:33:41=32,165 
114114 FRAJulien SimonFRACofidis – Solutions Crédits05:41:22  +  00:33:41=32,165 
115115 ITAMatteo BonoUAEUAE Team Emirates05:41:22  +  00:33:41=32,165 
116116 ITAMarco MarcatoUAEUAE Team Emirates05:41:22  +  00:33:41=32,165 
117117 BELJens KeukeleireAUSOrica - Scott05:41:22  +  00:33:41=32,165 
118118 FRAThomas BoudatFRADirect Energie05:41:22  +  00:33:41=32,165 
119119 ESPMarkel IrizarUSATrek - Segafredo05:41:22  +  00:33:41=32,165 
120120 NORVegard Stake LaengenUAEUAE Team Emirates05:41:22  +  00:33:41=32,165 
121121 FRAFlorian SénéchalFRACofidis – Solutions Crédits05:41:22  +  00:33:41=32,165 
122122 GERGianluca BrambillaBELQuick-Step Floors05:41:22  +  00:33:41=32,165 
123123 GERChristian KneesGBRSky Procycling05:41:22  +  00:33:41=32,165 
124124 PORTiago PintoCHETeam Katusha - Alpecin05:41:22  +  00:33:41=32,165 
125125 GERTony MartinCHETeam Katusha - Alpecin05:41:22  +  00:33:41=32,165 
126126 CZEZdenek StybarBELQuick-Step Floors05:41:22  +  00:33:41=32,165 
127127 NZLDion SmithBELWanty – Groupe Gobert05:41:22  +  00:33:41=32,165 
128128 NEDMaurits LammertinkCHETeam Katusha - Alpecin05:41:22  +  00:33:41=32,165 
129129 SUIMichael AlbasiniAUSOrica - Scott05:41:22  +  00:33:41=32,165 
130130 KAZDmitriy GruzdevKAZAstana Pro Team05:41:22  +  00:33:41=32,165 
131131 GERRick ZabelCHETeam Katusha - Alpecin05:41:22  +  00:33:41=32,165 
132132 SLOJanez BrajkovicBHRBahrain-Merida05:41:22  +  00:33:41=32,165 
133133 COLSergio Luis HenaoGBRSky Procycling05:41:22  +  00:33:41=32,165 
134134 POLMaciej BodnarDEUBora–Hansgrohe05:41:22  +  00:33:41=32,165 
135135 KAZAlexey LutsenkoKAZAstana Pro Team05:41:22  +  00:33:41=32,165 
136136 COLJohan Esteban ChavesAUSOrica - Scott05:41:22  +  00:33:41=32,165 
137137 COLJarlinson Pantano GomezUSATrek - Segafredo05:41:22  +  00:33:41=32,165 
138138 GERPaul MartensNLDTeam Lotto NL - Jumbo05:41:22  +  00:33:41=32,165 
139139 AUTMarco HallerCHETeam Katusha - Alpecin05:41:22  +  00:33:41=32,165 
140140 NEDAlbert TimmerDEUTeam Sunweb05:41:22  +  00:33:41=32,165 
141141 JPNYukiya ArashiroBHRBahrain-Merida05:41:22  +  00:33:41=32,165 
142142 ESPJavier Moreno BazánBHRBahrain-Merida05:41:22  +  00:33:41=32,165 
143143 FRALaurent PichonFRAFortuneo - Vital Concept05:41:22  +  00:33:41=32,165 
144144 FRAOlivier Le GacFRAFDJ05:41:22  +  00:33:41=32,165 
145145 SLOGrega BoleBHRBahrain-Merida05:41:22  +  00:33:41=32,165 
146146 USATaylor PhinneyUSACannondale-Drapac Pro Cycling ..05:41:22  +  00:33:41=32,165 
147147 NEDRamon SinkeldamDEUTeam Sunweb05:41:22  +  00:33:41=32,165 
148148 SLOBorut BozicBHRBahrain-Merida05:41:22  +  00:33:41=32,165 
149149 NEDDylan GroenewegenNLDTeam Lotto NL - Jumbo05:41:22  +  00:33:41=32,165 
150150 NEDTimo RoosenNLDTeam Lotto NL - Jumbo05:41:22  +  00:33:41=32,165 
151151 GERRobert WagnerNLDTeam Lotto NL - Jumbo05:41:22  +  00:33:41=32,165 
152152 ITASonny ColbrelliBHRBahrain-Merida05:41:22  +  00:33:41=32,165 
153153 FRAAdrien PetitFRADirect Energie05:41:22  +  00:33:41=32,165 
154154 RSAJaco VenterZAFDimension Data05:41:22  +  00:33:41=32,165 
155155 NEDTom LeezerNLDTeam Lotto NL - Jumbo05:41:22  +  00:33:41=32,165 
156156 BELDimitri ClaeysFRACofidis – Solutions Crédits05:41:22  +  00:33:41=32,165 
157157 FRAChristophe LaporteFRACofidis – Solutions Crédits05:41:22  +  00:33:41=32,165 
158158 AUSSimon ClarkeUSACannondale-Drapac Pro Cycling ..05:41:22  +  00:33:41=32,165 
159159 FRAFlorian VachonFRAFortuneo - Vital Concept05:41:22  +  00:33:41=32,165 
160160 FRACyril LemoineFRACofidis – Solutions Crédits05:41:22  +  00:33:41=32,165 
161161 AUTMichael GoglUSATrek - Segafredo05:41:22  +  00:33:41=32,165 
162162 ITAAlessandro De MarchiUSABMC Racing Team05:41:22  +  00:33:41=32,165 
163163 FRAPierre RollandUSACannondale-Drapac Pro Cycling ..05:41:22  +  00:33:41=32,165 
164164 BELJulien VermoteBELQuick-Step Floors05:41:22  +  00:33:41=32,165 
165165 FRANacer BouhanniFRACofidis – Solutions Crédits05:41:22  +  00:33:41=32,165 
166166 FRAYohann GèneFRADirect Energie05:41:22  +  00:33:41=32,165 
167167 ITADaniele BennatiESPMovistar Team05:41:22  +  00:33:41=32,165 
168168 ITADavide CimolaiFRAFDJ05:41:22  +  00:33:41=32,165 
169169 AUSMathew HaymanAUSOrica - Scott05:41:22  +  00:33:41=32,165 

Withdrawls: 4
 
Rider
Team
Reason
78  FRAThibaut PinotFRAFDJDid not finish
101  GERMarcel KittelBELQuick-Step FloorsDid not finish
138  GERMarcel SiebergBELLotto SoudalDid not start
211  ENGDaniel McLayFRAFortuneo - Vital ConceptDid not finish
Todays birthdays.

1878  Jean Novo
1883  Jules Chabas
1890  Ange Aubry
1893  Roger Marye
1913  Paul Maye
1914  Lucien Vlaemynck
1915  Alphonse Antoine
1932  Rolf Graf
1953  Julio Rubiano
1959  Jos Haex
1959  Gerard Veldscholten
1963  Pablo Moreno
1964  Juan Castillo
1977  Iban Mayo
1994  Fernando Gaviria